Belmar-Farmingdale, NJ

4:06 AM EST on December 07, 2019 (GMT -0500)
Allaire

Weather History for KBLM - October, 2019

Change the Weather History Date:

Monday, October 7, 2019

  Actual Average Record
Temperature  
Mean Temperature 70 °F -  
Max Temperature 80 °F 64 °F 82 °F (2017)
Min Temperature 62 °F 48 °F 35 °F (1999)
Cooling Degree Days 6    
Growing Degree Days 20 (Base 50)    
Moisture  
Dew Point 62 °F    
Average Humidity 76    
Maximum Humidity 94    
Minimum Humidity 54    
Precipitation  
Precipitation 0.00 in - - ()
Sea Level Pressure  
Sea Level Pressure 30.16 in    
Wind  
Wind Speed 9 mph ()    
Max Wind Speed 16 mph    
Max Gust Speed 22 mph    
Visibility 10.0 miles    
Events Rain    
Averages and records for this station are not official NWS values.
T = Trace of Precipitation, MM = Missing Value Source: Averaged Metar Reports

Daily Weather History Graph

Daily Weather History Graph

Search for Another Location

Airport or City:

Astronomy

Oct. 07, 2019 Rise Set
Actual Time 6:58 AM EDT 6:29 PM EDT
Civil Twilight 6:31 AM EDT 6:56 PM EDT
Nautical Twilight 5:59 AM EDT 7:27 PM EDT
Astronomical Twilight 5:28 AM EDT 7:59 PM EDT
Moon 3:49 PM EDT 12:48 AM EDT
Length of Visible Light 12h 25m
Length of Day
11h 30m
Waxing Gibbous, 69% of the Moon is Illuminated
Oct 7
Waxing Gibbous
Oct 13
Full
Oct 21
Last Quarter
Oct 27
New
Nov 4
First Quarter

Hourly Weather History & Observations

Time (EDT) Temp. Dew Point Humidity Pressure Visibility Wind Dir Wind Speed Gust Speed Precip Events Conditions
12:56 AM 70.0 °F 62.1 °F 76% 30.24 in 10.0 mi South 11.5 mph 20.7 mph N/A   Overcast
1:56 AM 69.1 °F 63.0 °F 81% 30.23 in 10.0 mi Variable 6.9 mph - N/A   Overcast
2:56 AM 69.1 °F 63.0 °F 81% 30.21 in 10.0 mi South 9.2 mph - N/A   Overcast
3:56 AM 69.1 °F 63.0 °F 81% 30.19 in 10.0 mi South 9.2 mph - N/A   Overcast
4:56 AM 69.1 °F 63.0 °F 81% 30.20 in 10.0 mi South 9.2 mph - N/A   Overcast
5:56 AM 68.0 °F 62.1 °F 81% 30.19 in 10.0 mi South 6.9 mph - N/A   Overcast
6:56 AM 69.1 °F 62.1 °F 78% 30.20 in 10.0 mi South 8.1 mph - N/A   Overcast
7:56 AM 69.1 °F 62.1 °F 78% 30.20 in 10.0 mi South 8.1 mph - N/A   Overcast
8:56 AM 71.1 °F 62.1 °F 73% 30.19 in 10.0 mi South 10.4 mph - N/A   Overcast
9:56 AM 75.0 °F 62.1 °F 64% 30.19 in 10.0 mi SSW 12.7 mph 20.7 mph N/A   Clear
10:56 AM 75.9 °F 61.0 °F 60% 30.17 in 10.0 mi SSW 13.8 mph 20.7 mph N/A   Scattered Clouds
11:56 AM 78.1 °F 60.1 °F 54% 30.16 in 10.0 mi SSW 16.1 mph 21.9 mph N/A   Scattered Clouds
1:56 PM 79.0 °F 62.1 °F 56% 30.10 in 10.0 mi South 10.4 mph 19.6 mph N/A   Mostly Cloudy
2:56 PM 75.9 °F 64.9 °F 69% 30.09 in 10.0 mi SE 12.7 mph 19.6 mph N/A   Mostly Cloudy
3:56 PM 73.9 °F 64.9 °F 73% 30.09 in 10.0 mi SSE 11.5 mph - N/A   Clear
4:56 PM 75.0 °F 64.9 °F 71% 30.09 in 10.0 mi South 10.4 mph - N/A   Partly Cloudy
5:56 PM 73.9 °F 64.0 °F 71% 30.09 in 10.0 mi South 8.1 mph - N/A   Partly Cloudy
6:56 PM 72.0 °F 64.0 °F 76% 30.09 in 10.0 mi South 9.2 mph 16.1 mph N/A   Clear
7:56 PM 71.1 °F 64.0 °F 78% 30.10 in 10.0 mi South 5.8 mph - N/A   Clear
8:56 PM 70.0 °F 64.0 °F 81% 30.12 in 10.0 mi South 8.1 mph - N/A   Clear
9:56 PM 70.0 °F 64.0 °F 81% 30.14 in 10.0 mi NW 6.9 mph - N/A   Partly Cloudy
10:19 PM 66.2 °F 60.8 °F 83% 30.15 in 10.0 mi North 15.0 mph - N/A   Overcast
10:56 PM 64.0 °F 59.0 °F 84% 30.17 in 10.0 mi NNW 11.5 mph - N/A   Overcast
11:23 PM 62.6 °F 60.8 °F 94% 30.18 in 10.0 mi NNW 13.8 mph - N/A   Overcast
11:56 PM 62.1 °F 59.0 °F 90% 30.18 in 10.0 mi NNW 10.4 mph - 0.00 in Rain Light Rain